Hillsdale, MI

11:00 AM EST on February 19, 2017 (GMT -0500)
Hillsdale Municipal

Weather History for KJYM - April, 2014

Change the Weather History Date:

Sunday, April 13, 2014

  Actual Average Record
Temperature  
Mean Temperature 66 °F -  
Max Temperature 73 °F 57 °F 81 °F (1977)
Min Temperature 60 °F 34 °F 17 °F (1950)
Cooling Degree Days 2    
Growing Degree Days 16 (Base 50)    
Moisture  
Dew Point 53 °F    
Average Humidity 60    
Maximum Humidity 72    
Minimum Humidity 51    
Precipitation  
Precipitation 0.00 in - - ()
Sea Level Pressure  
Sea Level Pressure 29.76 in    
Wind  
Wind Speed 9 mph (SSW)    
Max Wind Speed 21 mph    
Max Gust Speed 28 mph    
Visibility 10 miles    
Events      
Averages and records for this station are not official NWS values.
T = Trace of Precipitation, MM = Missing Value Source: NWS Daily Summary

Daily Weather History Graph

Daily Weather History Graph

Search for Another Location

Airport or City:

Trip Planner

Search our weather history database for the weather conditions in past years. The results will help you decide how hot, cold, wet, or windy it might be!

Date:

Astronomy

Apr. 13, 2014 Rise Set
Actual Time 7:01 AM EDT 8:17 PM EDT
Civil Twilight 6:32 AM EDT 8:46 PM EDT
Nautical Twilight 5:57 AM EDT 9:20 PM EDT
Astronomical Twilight 5:21 AM EDT 9:57 PM EDT
Moon 6:53 PM EDT (4/13) 6:01 AM EDT (4/13)
Length of Visible Light 14h 13m
Length of Day
13h 15m
Waxing Gibbous, 97% of the Moon is Illuminated
Apr 13
Waxing Gibbous
Apr 15
Full
Apr 22
Last Quarter
Apr 29
New
May 6
First Quarter

Hourly Weather History & Observations

Time (EDT) Temp. Dew Point Humidity Pressure Visibility Wind Dir Wind Speed Gust Speed Precip Events Conditions
12:15 AM 64.2 °F 50.5 °F 61% 29.84 in 10.0 mi SSE 3.5 mph - N/A   Mostly Cloudy
12:35 AM 63.9 °F 50.5 °F 62% 29.83 in 10.0 mi SSE 3.5 mph - N/A   Overcast
12:54 AM 63.9 °F 50.7 °F 62% 29.83 in 10.0 mi SE 4.6 mph - N/A   Overcast
1:15 AM 63.1 °F 50.5 °F 63% 29.83 in 10.0 mi SE 4.6 mph - N/A   Overcast
1:35 AM 63.1 °F 51.1 °F 65% 29.83 in 10.0 mi SSE 4.6 mph - N/A   Overcast
1:54 AM 63.1 °F 50.9 °F 64% 29.83 in 10.0 mi SE 4.6 mph - N/A   Overcast
2:15 AM 63.5 °F 50.9 °F 63% 29.83 in 10.0 mi SSE 4.6 mph - N/A   Mostly Cloudy
2:34 AM 63.3 °F 50.9 °F 64% 29.83 in 10.0 mi SSE 5.8 mph - N/A   Overcast
2:55 AM 63.3 °F 51.1 °F 64% 29.82 in 10.0 mi South 6.9 mph - N/A   Overcast
3:14 AM 63.1 °F 51.1 °F 65% 29.81 in 10.0 mi SSE 5.8 mph - N/A   Overcast
3:35 AM 62.8 °F 51.1 °F 66% 29.81 in 10.0 mi SSE 6.9 mph - N/A   Overcast
3:55 AM 61.9 °F 50.9 °F 67% 29.80 in 10.0 mi SSE 9.2 mph - N/A   Mostly Cloudy
4:14 AM 61.5 °F 51.3 °F 69% 29.79 in 10.0 mi SSE 6.9 mph - N/A   Mostly Cloudy
4:35 AM 61.2 °F 51.3 °F 70% 29.79 in 10.0 mi SSE 8.1 mph - N/A   Scattered Clouds
4:55 AM 60.4 °F 51.4 °F 72% 29.79 in 10.0 mi South 9.2 mph - N/A   Mostly Cloudy
5:14 AM 61.0 °F 51.4 °F 71% 29.78 in 10.0 mi South 9.2 mph - N/A   Mostly Cloudy
5:35 AM 61.2 °F 51.4 °F 70% 29.78 in 10.0 mi South 10.4 mph - N/A   Scattered Clouds
5:54 AM 61.3 °F 51.4 °F 70% 29.77 in 10.0 mi South 9.2 mph - N/A   Clear
6:15 AM 61.2 °F 51.4 °F 70% 29.77 in 10.0 mi South 8.1 mph 16.1 mph N/A   Scattered Clouds
6:35 AM 61.5 °F 51.4 °F 69% 29.77 in 10.0 mi SSW 10.4 mph - N/A   Clear
6:54 AM 61.3 °F 51.4 °F 70% 29.76 in 10.0 mi South 11.5 mph - N/A   Clear
7:15 AM 61.3 °F 51.6 °F 70% 29.76 in 10.0 mi South 10.4 mph - N/A   Scattered Clouds
7:35 AM 61.5 °F 52.0 °F 71% 29.77 in 10.0 mi SSW 10.4 mph 16.1 mph N/A   Scattered Clouds
7:54 AM 61.9 °F 52.0 °F 70% 29.77 in 10.0 mi SSW 11.5 mph - N/A   Overcast
8:15 AM 61.5 °F 52.2 °F 71% 29.77 in 10.0 mi SSW 10.4 mph 17.3 mph N/A   Mostly Cloudy
8:34 AM 61.5 °F 52.2 °F 71% 29.78 in 10.0 mi SSW 10.4 mph 16.1 mph N/A   Clear
8:54 AM 63.3 °F 52.3 °F 67% 29.77 in 10.0 mi SSW 11.5 mph 17.3 mph N/A   Clear
9:15 AM 63.3 °F 52.5 °F 68% 29.77 in 10.0 mi SSW 13.8 mph 18.4 mph N/A   Scattered Clouds
9:34 AM 64.0 °F 53.1 °F 67% 29.77 in 10.0 mi SW 12.7 mph 19.6 mph N/A   Mostly Cloudy
9:55 AM 65.8 °F 53.6 °F 65% 29.77 in 10.0 mi SW 16.1 mph 25.3 mph N/A   Mostly Cloudy
10:15 AM 66.6 °F 54.0 °F 64% 29.78 in 10.0 mi SW 17.3 mph 27.6 mph N/A   Mostly Cloudy
10:34 AM 67.6 °F 54.1 °F 62% 29.78 in 10.0 mi SW 17.3 mph 21.9 mph N/A   Mostly Cloudy
10:55 AM 67.8 °F 54.3 °F 62% 29.78 in 10.0 mi SW 19.6 mph - N/A   Mostly Cloudy
11:35 AM 69.6 °F 54.9 °F 59% 29.77 in 10.0 mi WSW 17.3 mph 26.5 mph N/A   Mostly Cloudy
11:55 AM 70.9 °F 54.9 °F 57% 29.78 in 10.0 mi WSW 16.1 mph 24.2 mph N/A   Scattered Clouds
12:14 PM 72.0 °F 55.0 °F 55% 29.78 in 10.0 mi SW 12.7 mph 25.3 mph N/A   Mostly Cloudy
12:35 PM 72.1 °F 55.0 °F 55% 29.77 in 10.0 mi West 13.8 mph 20.7 mph N/A   Overcast
12:55 PM 72.7 °F 54.9 °F 53% 29.78 in 10.0 mi SW 20.7 mph 24.2 mph N/A   Mostly Cloudy
1:14 PM 73.0 °F 55.0 °F 53% 29.77 in 10.0 mi WSW 16.1 mph 25.3 mph N/A   Mostly Cloudy
1:35 PM 73.8 °F 55.6 °F 53% 29.77 in 10.0 mi WSW 15.0 mph 24.2 mph N/A   Scattered Clouds
1:55 PM 73.4 °F 55.2 °F 53% 29.78 in 10.0 mi SW 18.4 mph 26.5 mph N/A   Mostly Cloudy
2:14 PM 72.9 °F 55.2 °F 54% 29.78 in 10.0 mi SW 12.7 mph 25.3 mph N/A   Overcast
2:35 PM 73.6 °F 55.4 °F 53% 29.77 in 10.0 mi WSW 11.5 mph - N/A   Mostly Cloudy
2:54 PM 73.6 °F 55.8 °F 54% 29.77 in 10.0 mi WSW 13.8 mph 20.7 mph N/A   Mostly Cloudy
3:14 PM 73.8 °F 55.6 °F 53% 29.78 in 10.0 mi SW 17.3 mph 26.5 mph N/A   Mostly Cloudy
3:35 PM 72.7 °F 55.6 °F 55% 29.77 in 10.0 mi SW 15.0 mph 24.2 mph N/A   Overcast
3:54 PM 71.6 °F 55.2 °F 56% 29.77 in 10.0 mi SW 16.1 mph 21.9 mph N/A   Overcast
4:15 PM 71.8 °F 55.2 °F 56% 29.74 in 10.0 mi WSW 6.9 mph 16.1 mph N/A   Mostly Cloudy
4:35 PM 71.4 °F 54.5 °F 55% 29.75 in 10.0 mi SSW 15.0 mph 19.6 mph N/A   Mostly Cloudy
4:54 PM 70.5 °F 54.0 °F 56% 29.77 in 10.0 mi SW 12.7 mph 23.0 mph N/A   Overcast
5:15 PM 71.4 °F 54.0 °F 54% 29.76 in 10.0 mi SW 10.4 mph 19.6 mph N/A   Overcast
5:35 PM 72.3 °F 54.1 °F 53% 29.75 in 10.0 mi SW 11.5 mph 23.0 mph N/A   Mostly Cloudy
5:54 PM 73.4 °F 54.1 °F 51% 29.75 in 10.0 mi SW 10.4 mph - N/A   Mostly Cloudy
6:15 PM 72.5 °F 53.4 °F 51% 29.75 in 10.0 mi SSW 11.5 mph 17.3 mph N/A   Overcast
6:34 PM 72.3 °F 53.2 °F 51% 29.74 in 10.0 mi SSW 12.7 mph 17.3 mph N/A   Mostly Cloudy
6:54 PM 72.0 °F 53.4 °F 52% 29.74 in 10.0 mi SSW 6.9 mph 16.1 mph N/A   Scattered Clouds
7:15 PM 71.2 °F 53.6 °F 54% 29.73 in 10.0 mi SSW 8.1 mph - N/A   Mostly Cloudy
7:34 PM 70.9 °F 54.0 °F 55% 29.72 in 10.0 mi South 6.9 mph - N/A   Overcast
7:55 PM 70.0 °F 54.0 °F 57% 29.71 in 10.0 mi South 5.8 mph - N/A   Mostly Cloudy
8:14 PM 69.6 °F 54.0 °F 57% 29.70 in 10.0 mi SSE 4.6 mph - N/A   Mostly Cloudy
8:34 PM 69.1 °F 54.0 °F 58% 29.68 in 10.0 mi SE 5.8 mph - N/A   Scattered Clouds
8:55 PM 69.1 °F 53.6 °F 58% 29.68 in 10.0 mi South 6.9 mph - N/A   Scattered Clouds
9:14 PM 69.1 °F 53.2 °F 57% 29.68 in 10.0 mi SSE 6.9 mph - N/A   Mostly Cloudy
9:34 PM 69.3 °F 52.9 °F 56% 29.67 in 10.0 mi SSE 6.9 mph - N/A   Mostly Cloudy
9:55 PM 69.3 °F 52.7 °F 56% 29.67 in 10.0 mi South 9.2 mph - N/A   Mostly Cloudy
10:14 PM 69.1 °F 52.7 °F 56% 29.67 in 10.0 mi South 9.2 mph - N/A   Overcast
10:35 PM 69.3 °F 52.3 °F 55% 29.66 in 10.0 mi South 9.2 mph - N/A   Mostly Cloudy
10:55 PM 68.5 °F 52.3 °F 56% 29.66 in 10.0 mi South 10.4 mph - N/A   Scattered Clouds
11:14 PM 68.5 °F 52.2 °F 56% 29.66 in 10.0 mi SSW 9.2 mph - N/A   Scattered Clouds
11:35 PM 68.0 °F 52.5 °F 58% 29.64 in 10.0 mi South 6.9 mph - N/A   Clear
11:55 PM 67.3 °F 52.5 °F 59% 29.63 in 10.0 mi South 8.1 mph - N/A   Clear